Weather observations for the past three days for
Takotna, Tatalina LRRS Airport
| Date | Time (akdt) | Wind (kph) | Vis. (km) | Weather | Sky Cond. | Temperature (ºC) | Relative Humidity | Wind Chill (°C) | Heat Index (°C) | Pressure | Precipitation (cm) | ||||||
|---|---|---|---|---|---|---|---|---|---|---|---|---|---|---|---|---|---|
| Air | Dwpt | 6 hour | altimeter (cm) | sea level (mb) | 1 hr | 3 hr | 6 hr | ||||||||||
| Max. | Min. | ||||||||||||||||
| 06 | 03:55 | Vrbl 6 | 0.80 | Fog | VV004 | 8.1 | 8.1 | 10.7 | 7.8 | 100% | 76.2 | 1015.9 | 0.03 | ||||
| 06 | 02:55 | Vrbl 4 | 16.09 | Mostly Cloudy | FEW004 BKN065 | 9 | 9 | 100% | 76.23 | 1016.5 | |||||||
| 06 | 01:55 | Vrbl 6 | 16.09 | Partly Cloudy | FEW002 SCT070 | 9 | 9 | 100% | 76.28 | 1017.0 | |||||||
| 06 | 00:55 | Vrbl 6 | 8.05 | Fog/Mist | CLR | 9.1 | 8.8 | 98% | 76.28 | 1017.2 | 0.03 | ||||||
| 05 | 23:55 | Vrbl 6 | 16.09 | A Few Clouds | FEW075 | 10 | 10 | 100% | 76.3 | 1017.4 | |||||||
| 05 | 22:55 | Calm | 11.27 | A Few Clouds | FEW050 | 10 | 10 | 100% | 76.28 | 1017.2 | 0.03 | ||||||
| 05 | 21:55 | Vrbl 2 | 16.09 | Mostly Cloudy | BKN065 | 10.6 | 10.3 | 14.1 | 10.7 | 98% | 76.3 | 1017.4 | 0.38 | ||||
| 05 | 20:55 | Vrbl 4 | 16.09 | Mostly Cloudy | FEW008 FEW048 BKN060 | 11 | 11 | 100% | 76.3 | 1017.5 | |||||||
| 05 | 19:55 | E 6 | 4.83 | Showers Rain | BKN008 BKN034 | 11 | 11 | 100% | 76.33 | 1017.6 | 0.23 | ||||||
| 05 | 18:55 | NE 13 | 8.05 | Rain | FEW015 BKN023 | 11.2 | 10.6 | 96% | 76.3 | 1017.4 | 0.08 | 0.08 | |||||
| 05 | 17:55 | Vrbl 11 | 16.09 | Partly Cloudy | FEW032 SCT045 SCT065 | 13 | 10 | 82% | 76.28 | 1017.1 | |||||||
| 05 | 16:55 | NE 11 | 16.09 | Mostly Cloudy | BKN023 | 12 | 11 | 94% | 76.28 | 1017.0 | 0.05 | ||||||
| 05 | 15:55 | NE 13 | 16.09 | Partly Cloudy | SCT021 | 13.9 | 9.4 | 13.7 | 10.5 | 74% | 76.28 | 1016.7 | |||||
| 05 | 14:55 | NE 19 | 16.09 | Mostly Cloudy | BKN036 BKN130 | 12 | 10 | 88% | 76.25 | 1016.6 | |||||||
| 05 | 13:55 | NE 19 | 16.09 | Mostly Cloudy | FEW011 BKN024 BKN055 | 12 | 10 | 88% | 76.23 | 1016.3 | |||||||
| 05 | 12:55 | Vrbl 9 | 16.09 | Overcast | OVC010 | 11.1 | 10.2 | 94% | 76.2 | 1015.8 | |||||||
| 05 | 11:55 | NE 17 | 11.27 | Light Showers Rain | OVC007 | 11 | 10 | 94% | 76.12 | 1015.0 | |||||||
| 05 | 08:55 | Vrbl 11 | 16.09 | Mostly Cloudy | BKN011 BKN065 BKN085 | 11 | 11 | 100% | 75.95 | 1012.5 | |||||||
| 05 | 07:55 | Vrbl 4 | 16.09 | Mostly Cloudy | FEW008 FEW050 BKN060 | 11 | 11 | 100% | 75.9 | 1011.6 | |||||||
| 05 | 06:55 | Vrbl 7 | 16.09 | Light Rain | SCT009 BKN050 | 10.8 | 10.5 | 98% | 75.82 | 1010.8 | 0.08 | 0.71 | |||||
| 05 | 05:55 | NE 17 G 30 | 16.09 | Rain | OVC017 | 11 | 11 | 100% | 75.72 | 1009.4 | 0.25 | ||||||
| 05 | 04:55 | Vrbl 7 | 1.21 | Rain Fog/Mist | VV005 | 13 | 12 | 94% | 75.64 | 1008.1 | 0.33 | ||||||
| 05 | 02:55 | Vrbl 9 | 1.61 | Rain Fog/Mist | OVC004 | 13 | 13 | 100% | 75.64 | 1008.1 | 0.23 | ||||||
| 05 | 01:55 | NE 13 | 2.41 | Heavy Rain Fog/Mist | BKN007 | 14 | 13 | 94% | 75.64 | 1008.1 | 0.43 | ||||||
| 05 | 00:55 | NE 11 | 1.21 | Rain Fog/Mist | VV003 | 13.7 | 13.5 | 99% | 75.67 | 1008.5 | 0.46 | 0.69 | |||||
| 04 | 23:55 | Vrbl 9 | 2.01 | Rain Fog/Mist | VV005 | 14 | 14 | 100% | 75.69 | 1008.8 | 0.2 | ||||||
| 04 | 22:55 | Vrbl 7 | 1.61 | Light Rain Fog/Mist | FEW002 BKN009 OVC031 | 14 | 14 | 100% | 75.72 | 1009.2 | 0.05 | ||||||
| 04 | 21:55 | E 6 | 3.22 | Light Rain Fog/Mist | OVC010 | 13.9 | 13.6 | 14.6 | 13.9 | 98% | 75.74 | 1009.6 | 0.23 | 0.69 | |||
| 04 | 20:55 | Vrbl 7 | 8.05 | Light Rain | BKN011 | 14 | 14 | 100% | 75.79 | 1010.2 | 0.15 | ||||||
| 04 | 19:55 | NE 9 | 8.05 | Light Rain | BKN002 BKN031 BKN044 | 14 | 14 | 100% | 75.82 | 1010.5 | 0.15 | ||||||
| 04 | 18:55 | NE 9 | 8.05 | Light Showers Rain | OVC010 | 14.4 | 14.1 | 98% | 75.87 | 1011.0 | 0.03 | 0.2 | |||||
| 04 | 17:55 | NE 17 | 16.09 | Light Rain | OVC003 | 14 | 14 | 100% | 75.87 | 1011.2 | 0.1 | ||||||
| 04 | 16:55 | NE 17 | 4.02 | Light Rain Fog/Mist | BKN004 | 15 | 14 | 94% | 75.9 | 1011.7 | 0.05 | ||||||
| 04 | 15:55 | Vrbl 11 | 12.87 | Light Rain | OVC003 | 14.5 | 14.3 | 14.5 | 13.2 | 99% | 75.92 | 1012.0 | 0.08 | 0.71 | |||
| 04 | 14:55 | Vrbl 11 | 16.09 | Light Rain | OVC003 | 14 | 14 | 100% | 75.95 | 1012.2 | 0.13 | ||||||
| 04 | 13:55 | Vrbl 9 | 4.83 | Light Rain Fog/Mist | OVC003 | 14 | 14 | 100% | 75.95 | 1012.4 | 0.15 | ||||||
| 04 | 12:55 | NE 17 | 16.09 | Light Rain | OVC004 | 13.8 | 13.5 | 98% | 75.95 | 1012.4 | 0.1 | 0.33 | |||||
| 04 | 11:55 | NE 13 | 16.09 | Light Rain | OVC003 | 14 | 13 | 94% | 75.95 | 1012.3 | 0.15 | ||||||
| 04 | 10:55 | NE 19 | 4.83 | Light Rain | OVC003 | 13 | 13 | 100% | 75.95 | 1012.4 | 0.13 | ||||||
| 04 | 09:55 | Vrbl 11 | 3.22 | Light Rain Fog/Mist | BKN002 | 13.3 | 13 | 13.7 | 13.3 | 98% | 75.97 | 1012.5 | 0.08 | 0.76 | |||
| 04 | 08:55 | NE 13 | 1.21 | Light Rain Fog/Mist | VV004 | 13 | 13 | 100% | 75.97 | 1012.6 | 0.18 | ||||||
| 04 | 07:55 | NE 13 | 0.80 | Light Rain Fog | VV003 | 14 | 13 | 94% | 75.97 | 1012.7 | 0.18 | ||||||
| 04 | 06:55 | NE 13 | 1.61 | Light Rain Fog/Mist | VV003 | 13.6 | 13.3 | 98% | 75.97 | 1012.7 | 0.05 | 0.33 | |||||
| 04 | 05:55 | NE 13 | 6.44 | Light Rain Fog/Mist | BKN002 | 14 | 13 | 94% | 75.97 | 1012.5 | 0.13 | ||||||
| 04 | 04:55 | NE 13 | 8.05 | Light Rain | BKN002 | 14 | 13 | 94% | 75.95 | 1012.4 | 0.15 | ||||||
| 04 | 03:55 | NE 13 | 4.83 | Light Rain Fog/Mist | BKN002 | 13.7 | 13.4 | 14.3 | 13.5 | 98% | 75.95 | 1012.5 | 0.08 | 0.28 | |||
| 04 | 02:55 | NE 13 | 2.82 | Light Rain Fog/Mist | VV003 | 14 | 14 | 100% | 75.97 | 1012.7 | 0.08 | ||||||
| 04 | 01:55 | NE 13 | 12.87 | Light Rain | OVC004 | 14 | 14 | 100% | 75.97 | 1012.9 | 0.05 | ||||||
| 04 | 00:55 | NE 17 | 14.48 | Light Drizzle | OVC008 | 14.3 | 13.5 | 95% | 75.97 | 1012.9 | 0.1 | ||||||
| 03 | 23:55 | NE 15 | 16.09 | Overcast | OVC007 | 14 | 14 | 100% | 75.97 | 1012.8 | 0.03 | ||||||
| 03 | 22:55 | NE 20 | 16.09 | Light Rain | OVC008 | 14 | 13 | 94% | 75.97 | 1012.9 | 0.05 | ||||||
| 03 | 21:55 | NE 17 | 16.09 | Light Rain | OVC007 | 13.5 | 13.1 | 13.6 | 10.9 | 97% | 75.97 | 1012.9 | 0.05 | 0.71 | |||
| 03 | 20:55 | NE 15 | 12.87 | Light Rain | OVC009 | 14 | 13 | 94% | 75.95 | 1012.7 | 0.18 | ||||||
| 03 | 19:55 | NE 15 | 11.27 | Rain | OVC010 | 13 | 13 | 100% | 75.97 | 1013.0 | 0.18 | ||||||
| 03 | 18:55 | NE 15 | 16.09 | Light Rain | OVC010 | 13.4 | 12.7 | 96% | 75.97 | 1013.0 | 0.05 | 0.3 | |||||
| 03 | 17:55 | E 26 G 31 | 16.09 | Light Rain | OVC011 | 13 | 13 | 100% | 76 | 1013.3 | 0.15 | ||||||
| 03 | 16:55 | Vrbl 7 | 8.05 | Light Rain | BKN012 | 12 | 12 | 100% | 76 | 1013.6 | 0.1 | ||||||
| 03 | 15:55 | Vrbl 9 | 16.09 | Light Showers Rain | FEW003 OVC014 | 11.2 | 11 | 11 | 7.1 | 99% | 76 | 1013.7 | 0.1 | ||||
| 03 | 14:55 | Vrbl 6 | 16.09 | Overcast | OVC003 | 10 | 10 | 100% | 76.05 | 1014.4 | |||||||
| 03 | 13:55 | Calm | 16.09 | Overcast | OVC003 | 10 | 10 | 100% | 76.07 | 1014.7 | |||||||
| 03 | 12:55 | Vrbl 4 | 14.48 | Overcast | OVC003 | 8.8 | 8.7 | 99% | 76.12 | 1015.2 | 0.05 | 0.1 | |||||
| 03 | 11:55 | Calm | 3.22 | Light Showers Rain Fog/Mist | OVC003 | 9 | 9 | 100% | 76.1 | 1015.0 | 0.03 | ||||||
| 03 | 10:55 | Calm | 1.61 | Light Showers Rain Fog/Mist | OVC002 | 8 | 7 | 93% | 76.15 | 1015.9 | 0.05 | ||||||
| 03 | 09:55 | Vrbl 6 | 4.83 | Light Showers Rain Fog/Mist | BKN003 | 7.2 | 7.1 | 7.6 | 5.8 | 99% | 76.17 | 1016.0 | 0.05 | ||||
| 03 | 08:55 | Vrbl 2 | 9.66 | Fog/Mist | OVC004 | 7 | 7 | 100% | 76.2 | 1016.2 | 0.03 | ||||||
| 03 | 07:55 | Vrbl 4 | 4.83 | Light Showers Rain Fog/Mist | OVC004 | 7 | 7 | 100% | 76.2 | 1016.5 | |||||||
| 03 | 06:55 | Vrbl 4 | 16.09 | Overcast | SCT005 OVC022 | 6.5 | 6.2 | 98% | 76.23 | 1016.6 | 0.03 | 0.05 | |||||
| 03 | 05:55 | Vrbl 7 | 6.44 | Light Showers Rain | OVC005 | 6 | 6 | 100% | 5 | 76.25 | 1016.9 | 0.03 | |||||
| 03 | 04:55 | Vrbl 9 | 16.09 | Overcast | OVC015 | 7 | 3 | 76% | 5 | 76.28 | 1017.5 | ||||||
| Date | Time (akdt) | Wind (kph) | Vis. (km) | Weather | Sky Cond. | Air | Dwpt | Max. | Min. | Relative Humidity | Wind Chill (°C) | Heat Index (°C) | altimeter (cm) | sea level (mb) | 1 hr | 3 hr | 6 hr |
| 6 hour | |||||||||||||||||
| Temperature (ºC) | Pressure | Precipitation (cm) | |||||||||||||||